Location: Little Bennett Regional Park
(39.2840°N, 77.2890°W)
Time: 16:45:53
(UTC-05:00)

Daily predictions for brighter satellites

Satellite Brightness Start Highest point End
(mag) Time Altitude Azimuth Time Altitude Azimuth Time Altitude Azimuth
NOSS 3-1 (A) 4.3 17:05:56 10° NW 17:13:40 85° WSW 17:22:04 10° SSE
Cosmos 1455 Rocket 4.3 17:12:05 10° NNE 17:15:26 21° ENE 17:18:47 10° ESE
Cosmos 1295 Rocket 4.5 17:13:54 10° N 17:19:58 60° E 17:25:57 10° SSE
Cosmos 1125 Rocket 4.0 17:16:31 10° SSW 17:21:47 67° WNW 17:27:06 10° NNE
Cosmos 2341 Rocket 4.0 17:17:49 10° N 17:24:03 86° E 17:30:17 10° S
Thor Agena Rocket 3.6 17:20:25 10° NNE 17:25:37 67° ESE 17:30:49 10° S
ATLAS 2AS CENTAUR R/B 3.4 17:17:59 10° NNW 17:25:41 44° NE 17:32:54 10° ESE
Cosmos 1269 Rocket 4.3 17:23:28 10° NNW 17:28:47 75° WSW 17:34:03 10° S
Okean 1 4.5 17:31:52 10° SE 17:35:06 23° E 17:38:21 10° NE
Hubble Space Telescope 3.5 17:34:04 10° SW 17:36:00 13° SSW 17:37:55 10° SSE
Cosmos 1536 3.3 17:32:17 10° NNW 17:36:20 67° W 17:40:22 10° S
Cosmos 2263 Rocket 4.2 17:34:10 10° WSW 17:38:38 24° NW 17:43:09 10° N
Cosmos 2251 Rocket 3.9 17:34:36 10° N 17:39:41 41° ENE 17:44:40 10° SE
ISS -2.7 17:43:30 10° WSW 17:46:43 52° NW 17:49:08 16° NE
MSX 3.8 17:46:32 10° SSE 17:52:14 70° ENE 17:57:58 10° N
SL-27 R/B 2.5 17:51:55 10° NNW 17:55:34 64° ENE 17:59:10 10° SSE
Cosmos 1812 2.7 17:52:06 10° S 17:55:54 60° E 17:59:42 10° NNE
Cosmos 1346 Rocket 3.8 17:52:52 10° SSE 17:56:07 25° E 17:57:08 22° ENE
CZ-4 R/B 2.9 17:56:13 10° S 18:00:11 41° W 18:04:08 10° NNW
Cosmos 864 Rocket 4.4 17:54:19 10° N 18:00:35 69° E 18:06:52 10° SSE
Tiangong 1 3.2 18:00:30 10° S 18:02:03 13° SE 18:02:26 13° SE
COSMO-SKYMED 1 2.6 17:58:08 10° NNE 18:02:25 55° E 18:06:39 10° S
Cosmos 1544 Rocket 3.6 17:59:14 10° N 18:03:42 88° W 18:08:11 10° S
Cosmos 1844 Rocket 3.1 17:59:03 10° SSW 18:04:34 64° WNW 18:10:10 10° NNE
GEOS 3 Rocket 3.7 18:01:01 10° SE 18:05:59 53° NE 18:10:58 10° NNW
CZ-2C R/B 3.3 18:02:01 10° S 18:06:49 53° W 18:11:47 10° NNW
Cosmos 1238 Rocket 2.5 18:08:02 10° SSW 18:11:00 63° W 18:13:47 11° N
MONITOR-E 4.3 18:08:13 10° S 18:11:24 78° W 18:14:37 10° NNW
Meteor 1-12 Rocket 4.2 18:06:58 10° N 18:12:44 75° E 18:18:36 10° SSE
Cosmos 1844 3.9 18:09:16 10° SSW 18:14:49 71° WNW 18:20:22 10° NNE
Cosmos 2297 4.4 18:11:05 10° SSE 18:16:01 32° ESE 18:17:28 28° ENE
CZ-3A R/B 4.2 18:11:06 10° W 18:16:28 47° N 18:35:18 17° NE
Cosmos 1975 2.7 18:13:29 10° N 18:17:33 64° E 18:21:33 10° SSE
OPS 8737 4.5 18:14:23 10° SW 18:17:44 67° WNW 18:18:56 34° NNE
BREEZE-M DEB (TANK) 3.8 18:17:11 10° NW 18:18:35 15° NNW 18:18:35 15° NNW
Cosmos 1536 Rocket 3.6 18:17:38 10° S 18:22:05 81° W 18:26:35 10° N
Cosmos 2278 Rocket 2.2 18:26:52 10° SSW 18:32:31 84° WNW 18:36:35 20° NNE
Meteor 2-21 Rocket 4.4 18:31:08 10° N 18:37:17 63° E 18:43:22 10° SSE
Meteor 1-13 Rocket 4.1 18:36:54 10° S 18:42:28 69° E 18:46:05 23° NNE
Meteor 2-16 Rocket 4.4 18:37:02 10° N 18:43:01 57° E 18:48:58 10° SSE
Timation 1 Rocket 4.5 18:40:05 10° S 18:45:45 48° ESE 18:46:14 47° E
Cosmos 1484 Rocket 4.2 18:42:19 10° SSW 18:45:51 38° W 18:49:22 10° NNW
Okean 1-7 Rocket 3.5 18:42:30 10° S 18:46:43 65° ESE 18:46:43 65° ESE
OTV 4 2.8 18:47:34 10° WSW 18:49:39 20° SSW 18:49:39 20° SSW
Cosmos 921 Rocket 4.1 18:46:07 10° S 18:48:30 31° SSE 18:48:30 31° SSE
CZ-3B DEB 3.1 18:46:13 10° WSW 18:50:24 49° NNW 18:55:16 25° NE
Cosmos 1535 Rocket 4.4 18:48:24 10° N 18:54:41 62° E 19:00:50 10° SSE
Timation 2 Rocket 4.1 18:50:33 10° NNW 18:57:20 64° ENE 18:59:44 41° SE
Cosmos 2082 Rocket 2.6 18:53:27 10° NNW 18:57:45 45° NNE 18:57:45 45° NNE
Cosmos 1833 Rocket 3.6 18:59:30 10° NNW 19:02:45 33° N 19:02:45 33° N
NOSS 3-3 (A) 4.5 19:00:44 10° SW 19:06:49 58° NW 19:09:41 33° NNE
NOSS 3-3 (C) 4.4 19:00:50 10° SW 19:06:54 58° NW 19:09:45 33° NNE
SL-8 R/B 4.1 19:04:37 10° WSW 19:09:02 57° NW 19:09:02 57° NW
Cosmos 2239 Rocket 4.3 19:06:40 10° N 19:12:55 87° E 19:19:05 10° S
METEOR-M 4.4 19:10:25 10° S 19:15:42 67° WSW 19:21:03 10° NNW
ATLAS 2AS CENTAUR R/B 3.9 19:09:14 10° NW 19:16:44 46° WSW 19:23:43 10° S
Meteor 2-4 Rocket 4.4 19:14:33 10° S 19:18:00 41° S 19:18:00 41° S
Cosmos 1821 Rocket 3.9 19:15:09 10° N 19:21:17 84° W 19:27:22 10° S
ATLAS 3B CENTAUR R/B 3.9 19:49:33 10° WSW 20:00:10 34° SSW 20:00:10 34° SSW
FALCON 9 R/B 3.9 20:17:10 10° W 20:26:28 40° WSW 20:26:28 40° WSW
